Flag for Germany Weather past 2 weeks in Herten, North Rhine-Westphalia, Germany

Now
37 °F

Light rain. Low clouds.


Feels Like: 32 °F
Forecast: 30 / 36 °F
Wind: 7 mph from Southwest

Location: Essen

Current Time: Jan 29, 2015 at 3:19:28 PM

Latest Report: Jan 29, 2015 at 3:00 PM


Visibility: 8 mi

Pressure: 29.03 "Hg

Humidity: 86%

Dew point: 33 °F

Location of HertenLocation

Historic Weather in Herten — Graph

°F

Herten temperature yesterday

Maximum temperature yesterday: 42 °F (at 1:00 PM)
Minimum temperature yesterday: 36 °F (at 8:00 PM)
Average temperature yesterday: 39 °F

Past Weeks' High & Low Weather Summary

 TemperatureHumidityPressure
High50 °F (Jan 15, 7:00 PM)100% (Jan 17, 7:00 AM)30.42 "Hg (Jan 17, 7:00 AM)
Low29 °F (Jan 21, 8:00 AM)61% (Jan 21, 3:00 PM)29.06 "Hg (Jan 29, 2:00 PM)
Average35 °F88%29.96 "Hg
* Reported Jan 14 2:00 PM — Jan 29 2:00 PM, Herten, Weather by CustomWeather, © 2014

Note: Actual official high and low records may vary slightly from our data, if they occured in-between our weather recording intervals... More about our weather records

Advertising

Herten weather history for previous 24 hours

 ConditionsComfort  
Time TempWeatherWind HumidityBarometerVisibility
2:00 PM
Jan 29
39 °FLow clouds.7 mph76%29.06 "Hg25 mi
1:00 PM38 °FOvercast.7 mph75%29.12 "Hg28 mi
12:00 PM37 °FLow clouds.7 mph80%29.18 "Hg9 mi
11:00 AM36 °FDrizzle. Overcast.8 mph81%29.21 "Hg22 mi
10:00 AM36 °FOvercast.8 mph81%29.23 "Hg25 mi
9:00 AM36 °FOvercast.8 mph82%29.26 "Hg19 mi
8:00 AM36 °FOvercast.8 mph81%29.26 "Hg22 mi
7:00 AM35 °FOvercast.8 mph80%29.29 "Hg22 mi
6:00 AM35 °FOvercast.7 mph79%29.32 "Hg22 mi
5:00 AM34 °FPassing clouds.8 mph78%29.35 "Hg22 mi
4:00 AM34 °FClear.8 mph81%29.38 "Hg22 mi
3:00 AM34 °FClear.7 mph82%29.41 "Hg22 mi
2:00 AM34 °FPassing clouds.5 mph87%29.44 "Hg22 mi
1:00 AM35 °FPassing clouds.7 mph84%29.44 "Hg22 mi
12:00 AM35 °FClear.6 mph84%29.44 "Hg19 mi
11:00 PM
Jan 28
36 °FLight rain. Overcast.7 mph82%29.44 "Hg19 mi
10:00 PM36 °FOvercast.6 mph88%29.47 "Hg18 mi
9:00 PM36 °FOvercast.6 mph91%29.47 "Hg19 mi
8:00 PM36 °FOvercast.5 mph94%29.44 "Hg25 mi
6:00 PM42 °FDrizzle. Low clouds.8 mph95%29.38 "Hg22 mi
5:00 PM39 °FRain. Low clouds.7 mph98%29.44 "Hg2 mi
4:00 PM40 °FLight rain. Low clouds.8 mph94%29.47 "Hg3 mi
3:00 PM42 °FOvercast.7 mph77%29.54 "Hg40 mi
Weather by CustomWeather, © 2014

See weather overviewHow to use our weather pages